Preview of NWS' New Version of Forecast
This preview is not operational and should not be used for support decisions.

Regional Weather Roundup (RWR)

Issued by National Weather Service (NWS)

                            
000
ASUS43 KBIS 222310
RWRND 

NORTH DAKOTA REGIONAL WEATHER ROUNDUP
NATIONAL WEATHER SERVICE BISMARCK ND
500 PM CST FRI FEB 22 2019

NOTE: "FAIR" INDICATES FEW OR NO CLOUDS BELOW 12,000 FEET WITH NO
SIGNIFICANT WEATHER AND/OR OBSTRUCTIONS TO VISIBILITY.


NDZ001>003-009>011-017-230000-
NORTHWEST NORTH DAKOTA
  
CITY           SKY/WX    TMP DP  RH WIND       PRES   REMARKS
WILLISTON      SUNNY     14   5  67 S7        29.98F WCI   4          
MINOT          CLOUDY    10   2  69 SE7       30.08F WCI  -1          
MINOT AFB      CLOUDY     8   1  76 S9        30.07F WCI  -6          
$$
 
NDZ018>021-031>035-040>046-230000-
SOUTHWEST NORTH DAKOTA
  
CITY           SKY/WX    TMP DP  RH WIND       PRES   REMARKS
BISMARCK       LGT SNOW  11   7  84 E9        30.10F FOG     WCI  -2  
DICKINSON      CLOUDY    12   6  77 S12       29.96F HAZE    WCI  -2  
GARRISON         N/A      8   4  83 SE7       30.07F WCI  -3          
HETTINGER ARPT PTSUNNY    9   5  84 SE7       29.97F WCI  -2          
$$
 
NDZ004>008-012>016-024-026-027-054-230000-
NORTHEAST NORTH DAKOTA
  
CITY           SKY/WX    TMP DP  RH WIND       PRES   REMARKS
GRAND FORKS    LGT SNOW   9   4  80 S6        30.28F WCI  -1          
GRND FRKS AFB  LGT SNOW  11   6  80 S6        30.27S WCI   1          
DEVILS LAKE    FLURRIES   8   4  83 SE8       30.19S WCI  -4          
$$
 
NDZ022-023-025-028>030-036>039-047>053-230000-
SOUTHEAST NORTH DAKOTA
  
CITY           SKY/WX    TMP DP  RH WIND       PRES   REMARKS
FARGO          SNOW      12   9  87 E5        30.27F VSB 1/4 WCI   4  
JAMESTOWN      LGT SNOW  12   9  87 E12       30.15F FOG     WCI  -2  
$$